Weather History for KPQI - February, 2014

Change the Weather History Date:

Saturday, February 22, 2014

  Actual Average Record
Temperature  
Mean Temperature 35 °F -  
Max Temperature 42 °F 29 °F 53 °F (1990)
Min Temperature 28 °F 8 °F -25 °F (2000)
Degree Days  
Heating Degree Days 30    
Moisture  
Dew Point 24 °F    
Average Humidity 67    
Maximum Humidity 93    
Minimum Humidity 39    
Precipitation  
Precipitation 0.01 in - - ()
Sea Level Pressure  
Sea Level Pressure 29.66 in    
Wind  
Wind Speed 7 mph (SW)    
Max Wind Speed 22 mph    
Max Gust Speed 110 mph    
Visibility 8 miles    
Events      
Averages and records for this station are not official NWS values.
T = Trace of Precipitation, MM = Missing Value Source: NWS Daily Summary

Daily Weather History Graph

Daily Weather History Graph

Search for Another Location

Airport or City:

Trip Planner

Search our weather history database for the weather conditions in past years. The results will help you decide how hot, cold, wet, or windy it might be!

Date:

Astronomy

Feb. 22, 2014 Rise Set
Actual Time 6:24 AM EST 5:07 PM EST
Civil Twilight 5:53 AM EST 5:38 PM EST
Nautical Twilight 5:18 AM EST 6:13 PM EST
Astronomical Twilight 4:43 AM EST 6:48 PM EST
Moon 12:24 AM EST (2/22) 10:06 AM EST (2/22)
Length of Visible Light 11h 44m
Length of Day
10h 43m
Waning Gibbous, 50% of the Moon is Illuminated
Feb 22
Waning Gibbous
Feb 22
Last Quarter
Mar 1
New
Mar 8
First Quarter
Mar 16
Full

Hourly Weather History & Observations

Time (EST) Temp. Windchill Dew Point Humidity Pressure Visibility Wind Dir Wind Speed Gust Speed Precip Events Conditions
12:15 AM 32.0 °F 27.5 °F 28.4 °F 87% 29.72 in 3.0 mi North 4.6 mph - N/A   Overcast
12:35 AM 32.0 °F 27.5 °F 28.4 °F 87% 29.72 in 2.5 mi NNW 4.6 mph - N/A   Overcast
12:55 AM 32.0 °F - 28.4 °F 87% 29.71 in 2.0 mi Calm Calm - N/A   Overcast
1:15 AM 32.0 °F 27.5 °F 28.4 °F 87% 29.70 in 3.0 mi NE 4.6 mph - 0.01 in   Overcast
1:35 AM 32.0 °F 28.7 °F 28.4 °F 87% 29.70 in 3.0 mi NNE 3.5 mph - 0.01 in   Overcast
1:55 AM 30.2 °F 26.7 °F 28.4 °F 93% 29.70 in 2.5 mi NNE 3.5 mph - 0.01 in   Overcast
2:15 AM 30.2 °F 26.7 °F 28.4 °F 93% 29.69 in 4.0 mi NNE 3.5 mph - N/A   Overcast
2:35 AM 30.2 °F 26.7 °F 28.4 °F 93% 29.69 in 10.0 mi NNE 3.5 mph - N/A   Overcast
2:55 AM 30.2 °F - 28.4 °F 93% 29.69 in 10.0 mi Calm Calm - N/A   Overcast
3:15 AM 30.2 °F - 28.4 °F 93% 29.69 in 10.0 mi Calm Calm - N/A   Overcast
3:35 AM 30.2 °F - 28.4 °F 93% 29.68 in 8.0 mi Calm Calm - N/A   Overcast
3:55 AM 30.2 °F - 26.6 °F 86% 29.69 in 7.0 mi Calm Calm - N/A   Mostly Cloudy
4:15 AM 28.4 °F - 26.6 °F 93% 29.69 in 3.0 mi Calm Calm - N/A   Clear
4:35 AM 28.4 °F 24.6 °F 24.8 °F 86% 29.70 in 0.5 mi SSW 3.5 mph - N/A   Overcast
4:55 AM 28.4 °F 22.2 °F 26.6 °F 93% 29.69 in 0.2 mi SSW 5.8 mph - N/A   Overcast
5:15 AM 30.2 °F 25.4 °F 26.6 °F 86% 29.70 in 0.5 mi SSW 4.6 mph - N/A   Overcast
5:35 AM 30.2 °F 24.3 °F 26.6 °F 86% 29.70 in 0.5 mi South 5.8 mph - N/A   Overcast
5:55 AM 28.4 °F 23.3 °F 26.6 °F 93% 29.70 in 0.8 mi SSW 4.6 mph - N/A   Overcast
6:15 AM 28.4 °F 23.3 °F 26.6 °F 93% 29.70 in 3.0 mi SSW 4.6 mph - N/A   Overcast
6:35 AM 28.4 °F 23.3 °F 26.6 °F 93% 29.70 in 10.0 mi SSW 4.6 mph - N/A   Overcast
6:55 AM 28.4 °F - 26.6 °F 93% 29.70 in 10.0 mi Calm Calm - N/A   Mostly Cloudy
7:15 AM 28.4 °F 24.6 °F 26.6 °F 93% 29.70 in 10.0 mi SE 3.5 mph - N/A   Overcast
7:35 AM 28.4 °F 22.2 °F 26.6 °F 93% 29.71 in 10.0 mi South 5.8 mph - N/A   Partly Cloudy
7:55 AM 30.2 °F 23.4 °F 26.6 °F 86% 29.70 in 10.0 mi South 6.9 mph - N/A   Clear
8:15 AM 30.2 °F 21.9 °F 26.6 °F 86% 29.70 in 10.0 mi South 9.2 mph - N/A   Clear
8:35 AM 32.0 °F 24.2 °F 26.6 °F 80% 29.70 in 1.0 mi South 9.2 mph - N/A   Clear
8:55 AM 33.8 °F 26.4 °F 28.4 °F 81% 29.70 in 10.0 mi SSW 9.2 mph - N/A   Clear
9:15 AM 35.6 °F 27.5 °F 28.4 °F 75% 29.69 in 10.0 mi South 11.5 mph - N/A   Clear
9:35 AM 37.4 °F 28.9 °F 26.6 °F 65% 29.69 in 10.0 mi SW 13.8 mph 20.7 mph N/A   Clear
9:55 AM 37.4 °F 28.5 °F 26.6 °F 65% 29.67 in 10.0 mi SSW 15.0 mph 18.4 mph N/A   Clear
10:15 AM 37.4 °F 29.3 °F 26.6 °F 65% 29.67 in 10.0 mi SW 12.7 mph - N/A   Clear
10:35 AM 39.2 °F 30.2 °F 26.6 °F 61% 29.66 in 10.0 mi SW 17.3 mph - N/A   Clear
10:55 AM 39.2 °F 30.8 °F 24.8 °F 56% 29.66 in 10.0 mi SW 15.0 mph 27.6 mph N/A   Clear
11:15 AM 39.2 °F 29.8 °F 24.8 °F 56% 29.65 in 10.0 mi SW 18.4 mph 26.5 mph N/A   Clear
11:35 AM 39.2 °F 30.5 °F 24.8 °F 56% 29.64 in 10.0 mi SW 16.1 mph 24.2 mph N/A   Clear
11:55 AM 41.0 °F 31.4 °F 23.0 °F 49% 29.64 in 10.0 mi SW 21.9 mph 28.8 mph N/A   Partly Cloudy
12:15 PM 41.0 °F 31.6 °F 21.2 °F 45% 29.63 in 10.0 mi SW 20.7 mph 29.9 mph N/A   Clear
12:35 PM 41.0 °F 31.9 °F 21.2 °F 45% 29.62 in 10.0 mi SW 19.6 mph 32.2 mph N/A   Clear
12:55 PM 42.8 °F 37.0 °F 21.2 °F 42% 29.62 in 10.0 mi WSW 10.4 mph 24.2 mph N/A   Clear
1:15 PM 42.8 °F 35.8 °F 19.4 °F 39% 29.61 in 10.0 mi SW 13.8 mph 20.7 mph N/A   Clear
1:35 PM 42.8 °F 38.0 °F 19.4 °F 39% 29.61 in 10.0 mi WSW 8.1 mph 17.3 mph N/A   Clear
1:55 PM 42.8 °F 36.2 °F 19.4 °F 39% 29.61 in 10.0 mi SW 12.7 mph 21.9 mph N/A   Partly Cloudy
2:15 PM 42.8 °F 34.3 °F 19.4 °F 39% 29.61 in 10.0 mi SW 19.6 mph 25.3 mph N/A   Mostly Cloudy
2:35 PM 42.8 °F 35.4 °F 19.4 °F 39% 29.61 in 10.0 mi WSW 15.0 mph 26.5 mph N/A   Overcast
2:55 PM 42.8 °F 35.1 °F 19.4 °F 39% 29.61 in 10.0 mi SW 16.1 mph 23.0 mph N/A   Mostly Cloudy
3:15 PM 42.8 °F 36.6 °F 19.4 °F 39% 29.61 in 10.0 mi SW 11.5 mph - N/A   Overcast
3:35 PM 42.8 °F 36.6 °F 19.4 °F 39% 29.61 in 10.0 mi SW 11.5 mph 17.3 mph N/A   Overcast
3:55 PM 42.8 °F 36.2 °F 19.4 °F 39% 29.61 in 10.0 mi SW 12.7 mph 19.6 mph N/A   Overcast
4:15 PM 41.0 °F 34.3 °F 21.2 °F 45% 29.61 in 10.0 mi SW 11.5 mph 20.7 mph N/A   Overcast
4:35 PM 41.0 °F 32.8 °F 21.2 °F 45% 29.61 in 10.0 mi SSW 16.1 mph 21.9 mph N/A   Overcast
4:55 PM 41.0 °F 34.3 °F 21.2 °F 45% 29.62 in 10.0 mi SW 11.5 mph 21.9 mph N/A   Mostly Cloudy
5:15 PM 39.2 °F 32.0 °F 21.2 °F 49% 29.62 in 10.0 mi SW 11.5 mph - N/A   Partly Cloudy
5:35 PM 39.2 °F 31.6 °F 21.2 °F 49% 29.62 in 10.0 mi SW 12.7 mph 18.4 mph N/A   Partly Cloudy
5:55 PM 39.2 °F 32.0 °F 21.2 °F 49% 29.62 in 10.0 mi WSW 11.5 mph 27.6 mph N/A   Scattered Clouds
6:15 PM 39.2 °F 32.5 °F 24.8 °F 56% 29.62 in 10.0 mi SW 10.4 mph - N/A   Mostly Cloudy
6:35 PM 37.4 °F 32.1 °F 24.8 °F 60% 29.63 in 10.0 mi SSW 6.9 mph - N/A   Mostly Cloudy
6:55 PM 37.4 °F 30.3 °F 24.8 °F 60% 29.63 in 10.0 mi SSW 10.4 mph - N/A   Mostly Cloudy
7:15 PM 37.4 °F 28.2 °F 24.8 °F 60% 29.64 in 10.0 mi West 16.1 mph 19.6 mph N/A   Mostly Cloudy
7:35 PM 35.6 °F 29.9 °F 26.6 °F 70% 29.64 in 10.0 mi West 6.9 mph - N/A   Mostly Cloudy
7:55 PM 35.6 °F 30.7 °F 26.6 °F 70% 29.63 in 10.0 mi SW 5.8 mph - N/A   Scattered Clouds
8:15 PM 33.8 °F 22.8 °F 26.6 °F 75% 29.63 in 1.2 mi SW 18.4 mph 110.5 mph N/A   Overcast
8:35 PM 35.6 °F 25.9 °F 24.8 °F 65% 29.64 in 10.0 mi SW 16.1 mph 26.5 mph N/A   Overcast
8:55 PM 35.6 °F 27.1 °F 24.8 °F 65% 29.64 in 10.0 mi SW 12.7 mph 19.6 mph N/A   Overcast
9:15 PM 33.8 °F 26.4 °F 24.8 °F 70% 29.65 in 10.0 mi SW 9.2 mph - N/A   Partly Cloudy
9:35 PM 33.8 °F 27.0 °F 23.0 °F 65% 29.65 in 10.0 mi SW 8.1 mph - N/A   Clear
9:55 PM 33.8 °F 26.4 °F 21.2 °F 60% 29.66 in 10.0 mi SW 9.2 mph - N/A   Clear
10:15 PM 33.8 °F 26.4 °F 19.4 °F 56% 29.66 in 10.0 mi SW 9.2 mph - N/A   Clear
10:35 PM 33.8 °F 26.4 °F 19.4 °F 56% 29.66 in 10.0 mi SW 9.2 mph 16.1 mph N/A   Clear
10:55 PM 33.8 °F 27.0 °F 19.4 °F 56% 29.66 in 10.0 mi WSW 8.1 mph - N/A   Clear
11:15 PM 33.8 °F 25.8 °F 17.6 °F 52% 29.67 in 10.0 mi WSW 10.4 mph - N/A   Clear
11:35 PM 33.8 °F 25.8 °F 17.6 °F 52% 29.67 in 10.0 mi WSW 10.4 mph - N/A   Clear
11:55 PM 33.8 °F 24.8 °F 15.8 °F 48% 29.67 in 10.0 mi WSW 12.7 mph 20.7 mph N/A   Clear